Location: Forshaga
(59.5328°N, 13.4805°E)
Time: 16:18:06
(UTC+02:00)

ISS - Pass Details

Date: 02 March 2021
Orbit: 418 x 422 km, 51.6° (Epoch: 17 April)

Event Time Altitude Azimuth Distance (km) Brightness Sun altitude
Exits shadow 05:36:20 13° 226° (SW) 1,335 -1.7 -11.4°
Maximum altitude 05:38:27 22° 181° (S) 985 -1.9 -11.2°
Drops below altitude 10° 05:41:05 10° 129° (SE) 1,501 -0.2 -10.8°
Sets 05:43:31 0° 113° (ESE) 2,380 1.3 -10.5°
